Flag for USA

Past Weather in Stillwater, Minnesota, USA — Yesterday and Last 2 Weeks

Now
54 °F

More clouds than sun.


Feels Like: 50 °F
Forecast: 60 / 46 °F
Wind: 15 mph from Northwest

Location: St. Paul Downtown Holman Field
Current Time: Sep 28, 2020 at 7:43:23 pm
Latest Report: Sep 28, 2020 at 6:53 pm
Visibility: 10 mi
Pressure29.88 "Hg
Humidity: 64%
Dew Point: 42 °F
Location of StillwaterLocation

Past Weather in Stillwater — Graph

°F

Stillwater Temperature Yesterday

Maximum temperature yesterday: 66 °F (at 1:53 pm)
Minimum temperature yesterday: 55 °F (at 4:53 am)
Average temperature yesterday: 59 °F

High & Low Weather Summary for the Past Weeks

 TemperatureHumidityPressure
High85 °F (Sep 23, 3:53 pm)93% (Sep 22, 6:53 am)30.47 "Hg (Sep 22, 6:53 am)
Low41 °F (Sep 18, 5:53 am)22% (Sep 18, 3:53 pm)29.47 "Hg (Sep 26, 4:53 pm)
Average63 °F68%30.00 "Hg
* Reported Sep 13 5:53 pm — Sep 28 5:53 pm, Stillwater. Weather by CustomWeather, © 2020

Note: Actual official high and low records may vary slightly from our data, if they occured in-between our weather recording intervals... More about our weather records

Stillwater Weather History for the Previous 24 Hours

Scroll right to see more
 ConditionsComfort  
Time TempWeatherWind HumidityBarometerVisibility
5:53 pm
Mon, Sep 28
56 °FPassing clouds.17 mph60%29.86 "Hg10 mi
4:53 pm55 °FBroken clouds.18 mph62%29.85 "Hg10 mi
3:53 pm55 °FBroken clouds.15 mph64%29.85 "Hg10 mi
2:53 pm54 °FScattered clouds.15 mph72%29.86 "Hg10 mi
1:53 pm51 °FLight rain. Broken clouds.20 mph77%29.86 "Hg5 mi
12:53 pm56 °FMostly cloudy.16 mph58%29.87 "Hg10 mi
11:53 am56 °FPartly sunny.17 mph60%29.86 "Hg10 mi
10:53 am56 °FLight rain. More clouds than sun.16 mph60%29.87 "Hg10 mi
9:53 am54 °FLight rain. Overcast.18 mph67%29.86 "Hg10 mi
8:53 am52 °FLight rain. Partly sunny.14 mph75%29.85 "Hg10 mi
7:53 am52 °FLight rain. Overcast.12 mph80%29.84 "Hg10 mi
6:53 am51 °FLight rain. Overcast.13 mph83%29.84 "Hg10 mi
5:53 am53 °FMostly cloudy.15 mph74%29.83 "Hg10 mi
4:53 am53 °FMostly cloudy.13 mph77%29.81 "Hg10 mi
3:53 am54 °FMostly cloudy.9 mph80%29.80 "Hg10 mi
2:53 am54 °FLight rain. Mostly cloudy.12 mph80%29.80 "Hg10 mi
1:53 am54 °FOvercast.8 mph80%29.80 "Hg10 mi
12:53 am53 °FPassing clouds.8 mph83%29.79 "Hg10 mi
11:53 pm
Sun, Sep 27
55 °FClear.13 mph80%29.79 "Hg10 mi
10:53 pm56 °FMostly cloudy.9 mph84%29.79 "Hg10 mi
9:53 pm56 °FMostly cloudy.7 mph84%29.78 "Hg10 mi
9:11 pm56 °FLight rain. Overcast.13 mph84%29.78 "Hg10 mi
7:53 pm57 °FMostly cloudy.12 mph81%29.76 "Hg10 mi
Weather by CustomWeather, © 2020

See weather overview